Regional Weather Roundup
Issued by NWS

Home | Current Version | Previous Version | Graphics & Text | Print | Product List | Glossary Off
Versions: 1 2 3 4 5 6 7 8 9 10 11 12 13 14 15 16 17 18 19 20 21 22 23 24 25 26 27 28 29 30 31 32 33 34 35 36 37 38 39 40 41 42 43 44 45 46 47 48 49 50

000
ASUS43 KMKX 290511
RWRWI

WISCONSIN REGIONAL WEATHER ROUNDUP
NATIONAL WEATHER SERVICE MILWAUKEE/SULLIVAN WI
1200 AM CDT MON AUG 29 2016

NOTE: "FAIR" INDICATES FEW OR NO CLOUDS BELOW 12,000 FEET WITH NO
SIGNIFICANT WEATHER AND/OR OBSTRUCTIONS TO VISIBILITY.

WIZ001-002-006>008-014>016-023>028-290600-
NORTHWEST WISCONSIN

CITY           SKY/WX    TMP DP  RH WIND       PRES   REMARKS
SUPERIOR ARPT  CLOUDY    65  64  99 NE8       30.13F
ASHLAND        FOG       62  61  96 CALM      30.17F VSB 1/2
HAYWARD        CLEAR     61  59  93 CALM      30.18F
SIREN          CLEAR     68  65  91 SE7       30.15F
CUMBERLAND     CLEAR     64  63  94 CALM      30.19S
RICE LAKE      CLEAR     64  61  91 CALM      30.19F FOG
CHETEK         NOT AVBL
LADYSMITH      CLEAR     66  63  91 E5        30.22S
EAU CLAIRE     CLEAR     67  65  93 CALM      30.17R
MENOMONIE      CLEAR     66  65  97 SE3       30.18R
NEW RICHMOND   CLEAR     67  67  99 CALM      30.16S
OSCEOLA        CLEAR     70  70 100 SE6       30.17S
$$

WIZ003>005-009-010-017-018-290600-
NORTH CENTRAL WISCONSIN

CITY           SKY/WX    TMP DP  RH WIND       PRES   REMARKS
MANITOWISH WTR NOT AVBL
ARBOR VITAE    CLEAR     62  60  94 CALM      30.24R
WOODRUFF       CLEAR     62  60  94 CALM      30.24R
RHINELANDER    CLEAR     60  60 100 CALM      30.25R FOG
EAGLE RIVER    FOG       56  56 100 CALM      30.24R VSB 1/2
LAND O LAKES   CLEAR     55  55 100 CALM      30.25S FOG
PHILLIPS       CLEAR     62  62  99 CALM      30.22S
TOMAHAWK       CLEAR     58  57  96 CALM      30.24S
MEDFORD        CLEAR     61  61 100 SE5       30.22S
MERRILL        CLEAR     59  59 100 CALM      30.23S FOG
$$

WIZ029-030-035-036-043>047-290600-
CENTRAL WISCONSIN

CITY           SKY/WX    TMP DP  RH WIND       PRES   REMARKS
WAUSAU         CLEAR     64  62  93 E5        30.21S
MOSINEE        CLEAR     63  63 100 CALM      30.23S
MARSHFIELD     CLEAR     65  62  90 CALM      30.21S
STEVENS POINT  PTCLDY    60  60 100 CALM      30.23R FOG
WAUPACA        CLEAR     65  64  99 CALM      30.23R
WAUTOMA        CLOUDY    63  62  97 CALM      30.22S
WISC RAPIDS    CLEAR     66  65  96 SE3       30.22S
CAMP DOUGLAS   PTCLDY    63  63 100 NE2       30.20S
$$

WIZ011>013-019>022-031-037>040-048>050-290600-
NORTHEAST WISCONSIN

CITY           SKY/WX    TMP DP  RH WIND       PRES   REMARKS
ANTIGO         CLEAR     61  61  99 CALM      30.25R
SHAWANO        CLEAR     68  65  90 CALM      30.23R
OCONTO         NOT AVBL
STURGEON BAY   CLEAR     63  61  93 S5        30.24R
GREEN BAY      CLEAR     62  62 100 CALM      30.23R
MANITOWOC      CLOUDY    61  59  94 CALM      30.24S FOG
APPLETON       CLOUDY    68  68 100 SE3       30.22R
CLINTONVILLE   CLOUDY    63  63 100 CALM      30.23R
OSHKOSH        PTCLDY    64  63  96 CALM      30.22R
$$

WIZ032>034-041-042-053>061-290600-
SOUTHWEST WISCONSIN

CITY           SKY/WX    TMP DP  RH WIND       PRES   REMARKS
LA CROSSE      PTCLDY    71  69  93 E6        30.17R
SPARTA         CLOUDY    63  62  98 CALM      30.20S
VIROQUA        PTCLDY    70  70 100 SE7       30.21R
BOSCOBEL       MOCLDY    70  69  97 CALM      30.19S FOG
PRAIRIE DU CHI CLOUDY    71  69  93 CALM      30.18S
PLATTEVILLE    CLOUDY    70  70 100 E5        30.21S
$$

WIZ056-057-062-063-064-067-068-290600-
SOUTH CENTRAL WISCONSIN

CITY           SKY/WX    TMP DP  RH WIND       PRES   REMARKS
REEDSBURG      NOT AVBL
BARABOO/DELLS  PTCLDY    67  64  93 CALM      30.21S
LONE ROCK      PTCLDY    67  65  93 CALM      30.20F
MINERAL POINT  MOCLDY    72  70  94 CALM      30.22S
MADISON        PTCLDY    72  69  90 S9        30.21R
MIDDLETON      PTCLDY    70  70 100 S6        30.22S
WATERTOWN      PTCLDY    67  67 100 E5        30.22S
MONROE         CLOUDY    70  68  94 SE6       30.22S
JANESVILLE     PTCLDY    70  68  94 E3        30.22S
$$

WIZ051-052-058>065-066-070>072-290600-
SOUTHEAST WISCONSIN

CITY           SKY/WX    TMP DP  RH WIND       PRES   REMARKS
MILWAUKEE      PTCLDY    69  66  90 CALM      30.24R
WAUKESHA       PTCLDY    64  64 100 SE6       30.25S
MILWAUKEE/TIMM MOCLDY    64  63  94 CALM      30.25R
RACINE         PTCLDY    66  64  93 CALM      30.25S
BURLINGTON     CLOUDY    65  64  98 CALM      30.24S FOG
KENOSHA        PTCLDY    67  66  97 CALM      30.24S
FOND DU LAC    CLOUDY    64  62  93 S6        30.23R
SHEBOYGAN      FOG       60  59  96 CALM      30.24S VSB 1
WEST BEND      PTCLDY    63  61  94 CALM      30.24S
JUNEAU         CLOUDY    65  64  96 E6        30.24S
$$

LSZ147-162-290600-
LAKE SUPERIOR

STATION/POSITION TIME  TEMP    WIND        PRES    WAVE
                       AIR SEA DIR/SP/G            HT/PER
                 (UTC) (F)     (DEG/KT/KT) (MB)    (FT/S)
W MID LAKE BUOY  0450   68 67  130/ 12/ 14 1021.3F   1
DEVILS ISLAND    0400   66     110/  7/  8 1021.9R
PORT WING        0440   65     160/  2/  2 1021.0F
SAXON HARBOR     0440   64     200/  6/  8 1021.7R
$$

LMZ867-665-643>646-290600-
LAKE MICHIGAN

STATION/POSITION TIME  TEMP    WIND        PRES    WAVE
                       AIR SEA DIR/SP/G            HT/PER
                 (UTC) (F)     (DEG/KT/KT) (MB)    (FT/S)
CHAMBERS ISLAND  0400   65      CALM  /  1 1023.0S
S GREEN BAY BUOY 0430   69 72  190/ 10/ 10 1022.8R
N MID LAKE BUOY  0450   70 71  110/  4/  6 1023.3R   0
NORTHPORT PIER   0400   67     190/  3/  6 1023.4S
KEWAUNEE LAKESHO 0400   63     260/  2/  2 1022.8F
SHEBOYGAN LAKESH 0500   65        CALM     1023.6R
PORT WASHINGTON  0440   66      CALM  /  1 1024.4R
ATWATER BUOY     0500   67     250/  2/  2   N/A
MILWAUKEE LAKESH 0410   67     260/  1/  1   N/A
S MID LAKE BUOY  0450   73 75   70/  6/  6 1023.1R   1
KENOSHA   LAKESH 0500   70      CALM  /  1 1023.4S
$$

TC  - TEMPERATURE IN CELSIUS
VSB - VISIBILITY IN STATUTE MILES
WCI - WIND CHILL INDEX
HX  - HEAT INDEX




USA.gov is the U.S. government's official web portal to all federal, state and local government web resources and services.